DECAYED
Showing default

AMICALSAT, 46287 (Decayed)

Orbit data source: Space-Track

AMICALSAT, 46287 was a payload satellite owned by CSUG (CIS) in LEO that was launched on Thu, 03 Sep 2020 UTC via a VEGA launch vehicle from the French Guiana (FRGUI). Payload-class satellites include a variety of spacecraft equipped with specific instruments for various scientific and technological missions. These include communications satellites like Starlink; space stations such as the ISS; scientific satellites like the Hubble; Earth observation satellites from companies like Planet Labs, Umbra, and HawkEye 360; GPS; miniature CubeSats for education and research; and military/defense satellites.

Not visible in the next 10 days
Identifier
46287, 2020-061R
Orbit
Decayed
Country
Flag of CISCIS
Related business
Flag of FRGrenoble University Space Center, University of Grenoble Alpes (FR)
Manufacturer
CSUG
Mission
Decayed Amateur Science
Bus & Motor
CUBESAT 2U, Unknown motor
Mass
2 kg wet, 2 kg dry
Launch date (UTC)
2020-09-03 (6 years ago)
Launch vehicle
VEGA
Launch site
French Guiana (FRGUI)
Object type
Payload
Rocket body
Debris
Shape & HBR
Box, Unknown HBR
Radar Cross Section
0.025 m², Medium (>0.1 m² and < 1m²)

Expand to show TLE details & history
Last TLE update: 2 years ago

TLE from 2 years ago
0 AMICALSAT
1 46287U 20061R   25010.85863821  .11283921  24654-5  56408-3 0  9994
2 46287  97.2840  89.8720 0009935 281.1985  78.8199 16.41970930241877
Epoch: 2025-01-10T20:36Z
TLE epoch observation values (Epoch: 2025-01-10T20:36:26.341Z)
Latitude
Longitude
30.14554°
Altitude
162.568 km
Speed
7.809 km/s
True Right ascension
05h 59m 29s
True Declination
0° 00' 00"
Sunlit
Object was in full shadow at epoch
Visualization orbit readout
Latitude
Unknown
Longitude
Unknown
Altitude
Unknown
Speed
Unknown
Apparent Right ascension
Unknown
Apparent Declination
Unknown
Sunlit
N/A
Visualization observer readout
Local Sidereal Time
19:42:11
Azimuth
Unknown
Elevation
Unknown
Doppler factor
Unknown
Orbital elements
Apogee altitude
163.858 km
Perigee altitude
150.872 km
Semi-major axis
6,535.502 km
Eccentricity
0.00099
Inclination
97.284°
RAAN
89.872°
Arg. of periapsis
281.1985°
True anomaly
78.93161°
Mean anomaly
78.8199°
Eccentric anomaly
78.87575°
Mean motion
4.10795 °/min
Orbital period
87.64 mins
BSTAR
0.00056408
Loading maneuver chart data...
Computing Atmospheric mass density...
Loading historical data...
Loading historical data...
Loading historical data...
Loading historical data...
Loading historical data...
Loading historical data...
Loading historical data...

Documentation

Showing up to 5 results
|